Weather History for KPSN - December, 2012

Change the Weather History Date:

Saturday, December 1, 2012

  Actual Average (KTYR) Record (KTYR)
Temperature  
Mean Temperature 72 °F 51 °F  
Max Temperature 79 °F 60 °F 81 °F (1982)
Min Temperature 64 °F 41 °F 19 °F (1975)
Degree Days  
Heating Degree Days 0 15  
Month to date heating degree days 15  
Since 1 July heating degree days 389  
Cooling Degree Days 6 0  
Month to date cooling degree days 0  
Year to date cooling degree days 2411  
Growing Degree Days 22 (Base 50)    
Moisture  
Dew Point 62 °F    
Average Humidity 77    
Maximum Humidity 91    
Minimum Humidity 51    
Precipitation  
Precipitation 0.00 in 0.13 in 2.42 in (1991)
Month to date precipitation 0.13  
Year to date precipitation 41.68  
Snow  
Snow 0.00 in - - ()
Since 1 July snowfall  
Snow Depth -    
Sea Level Pressure  
Sea Level Pressure 30.10 in    
Wind  
Wind Speed 9 mph (SSE)    
Max Wind Speed 16 mph    
Max Gust Speed 25 mph    
Visibility 10 miles    
Events      
T = Trace of Precipitation, MM = Missing Value Source: NWS Daily Summary

Daily Weather History Graph

Daily Weather History Graph

Search for Another Location

Airport or City:

Trip Planner

Search our weather history database for the weather conditions in past years. The results will help you decide how hot, cold, wet, or windy it might be!

Date:

Astronomy

Dec. 01, 2012 Rise Set
Actual Time 7:05 AM CST 5:18 PM CST
Civil Twilight 6:38 AM CST 5:45 PM CST
Nautical Twilight 6:08 AM CST 6:15 PM CST
Astronomical Twilight 5:39 AM CST 6:44 PM CST
Moon 8:06 PM CST (12/1) 9:21 AM CST (12/1)
Length of Visible Light 11h 06m
Length of Day
10h 13m
Waning Gibbous, 91% of the Moon is Illuminated
Dec 1
Waning Gibbous
Dec 6
Last Quarter
Dec 13
New
Dec 19
First Quarter
Dec 28
Full

Hourly Weather History & Observations

Time (CST) Temp. Dew Point Humidity Pressure Visibility Wind Dir Wind Speed Gust Speed Precip Events Conditions
12:15 AM 65.3 °F 60.4 °F 84% 30.13 in 10.0 mi SE 9.2 mph - N/A   Overcast
12:35 AM 64.9 °F 60.4 °F 85% 30.13 in 10.0 mi SSE 9.2 mph - N/A   Overcast
12:55 AM 65.3 °F 60.8 °F 85% 30.13 in 10.0 mi SSE 8.1 mph - N/A   Overcast
1:15 AM 65.3 °F 60.8 °F 85% 30.13 in 10.0 mi SSE 8.1 mph - N/A   Overcast
1:35 AM 65.3 °F 60.8 °F 85% 30.12 in 10.0 mi SE 8.1 mph - N/A   Overcast
1:55 AM 64.9 °F 60.4 °F 85% 30.12 in 10.0 mi SSE 8.1 mph - N/A   Overcast
2:15 AM 64.8 °F 60.3 °F 85% 30.12 in 10.0 mi SSE 6.9 mph - N/A   Overcast
2:35 AM 64.8 °F 60.4 °F 86% 30.12 in 10.0 mi SE 9.2 mph - N/A   Overcast
2:55 AM 64.8 °F 60.4 °F 86% 30.12 in 10.0 mi SSE 6.9 mph - N/A   Overcast
3:15 AM 64.8 °F 60.8 °F 87% 30.12 in 10.0 mi SSE 8.1 mph 16.1 mph N/A   Overcast
3:35 AM 64.8 °F 60.8 °F 87% 30.12 in 10.0 mi SSE 8.1 mph - N/A   Overcast
3:55 AM 64.8 °F 60.8 °F 87% 30.12 in 10.0 mi SSE 8.1 mph - N/A   Overcast
4:15 AM 64.6 °F 60.8 °F 88% 30.12 in 10.0 mi SSE 9.2 mph - N/A   Overcast
4:35 AM 64.4 °F 60.8 °F 88% 30.12 in 10.0 mi SSE 6.9 mph - N/A   Overcast
4:55 AM 64.4 °F 60.8 °F 88% 30.12 in 10.0 mi SSE 8.1 mph - N/A   Overcast
5:15 AM 64.4 °F 61.0 °F 89% 30.12 in 10.0 mi SSE 8.1 mph - N/A   Overcast
5:35 AM 64.4 °F 61.2 °F 89% 30.12 in 10.0 mi SSE 6.9 mph - N/A   Overcast
5:55 AM 64.2 °F 61.3 °F 90% 30.12 in 7.0 mi SSE 8.1 mph - N/A   Overcast
6:15 AM 64.4 °F 61.5 °F 90% 30.12 in 10.0 mi South 8.1 mph - N/A   Overcast
6:35 AM 64.4 °F 61.7 °F 91% 30.13 in 10.0 mi SSE 9.2 mph - N/A   Overcast
6:55 AM 64.0 °F 61.3 °F 91% 30.13 in 10.0 mi SSE 8.1 mph - N/A   Overcast
7:15 AM 64.4 °F 61.7 °F 91% 30.13 in 10.0 mi SSE 4.6 mph - N/A   Overcast
7:35 AM 64.4 °F 61.7 °F 91% 30.14 in 7.0 mi SSE 6.9 mph - N/A   Overcast
7:55 AM 64.4 °F 61.7 °F 91% 30.14 in 7.0 mi SSE 4.6 mph - N/A   Overcast
8:15 AM 64.6 °F 61.9 °F 91% 30.15 in 7.0 mi SSE 10.4 mph - N/A   Overcast
8:35 AM 64.9 °F 61.9 °F 90% 30.15 in 7.0 mi South 10.4 mph - N/A   Overcast
8:55 AM 64.8 °F 62.1 °F 91% 30.15 in 7.0 mi SSE 6.9 mph - N/A   Overcast
9:15 AM 65.3 °F 62.2 °F 90% 30.16 in 7.0 mi South 8.1 mph - N/A   Overcast
9:35 AM 65.8 °F 62.6 °F 89% 30.16 in 10.0 mi South 8.1 mph 18.4 mph N/A   Overcast
9:55 AM 66.2 °F 62.6 °F 88% 30.17 in 10.0 mi South 10.4 mph - N/A   Overcast
10:15 AM 66.4 °F 62.6 °F 88% 30.16 in 10.0 mi South 9.2 mph - N/A   Overcast
10:35 AM 66.4 °F 62.8 °F 88% 30.16 in 7.0 mi SSE 6.9 mph - N/A   Overcast
10:55 AM 67.1 °F 62.8 °F 86% 30.16 in 10.0 mi South 9.2 mph - N/A   Overcast
11:15 AM 68.4 °F 63.0 °F 83% 30.15 in 10.0 mi South 8.1 mph - N/A   Overcast
11:35 AM 70.0 °F 63.5 °F 80% 30.14 in 10.0 mi SSE 9.2 mph 17.3 mph N/A   Overcast
11:55 AM 71.1 °F 63.5 °F 77% 30.13 in 10.0 mi South 11.5 mph 18.4 mph N/A   Overcast
12:15 PM 73.0 °F 63.5 °F 72% 30.11 in 10.0 mi SSE 10.4 mph 21.9 mph N/A   Mostly Cloudy
12:35 PM 74.7 °F 63.5 °F 68% 30.10 in 10.0 mi South 10.4 mph 17.3 mph N/A   Mostly Cloudy
12:55 PM 74.5 °F 63.0 °F 67% 30.08 in 10.0 mi South 11.5 mph 17.3 mph N/A   Mostly Cloudy
1:15 PM 76.6 °F 63.3 °F 63% 30.08 in 10.0 mi South 11.5 mph 16.1 mph N/A   Mostly Cloudy
1:35 PM 76.5 °F 63.1 °F 63% 30.07 in 10.0 mi SSE 9.2 mph - N/A   Mostly Cloudy
1:55 PM 77.7 °F 61.3 °F 57% 30.05 in 10.0 mi South 11.5 mph 25.3 mph N/A   Mostly Cloudy
2:15 PM 79.5 °F 61.0 °F 53% 30.04 in 10.0 mi SSW 11.5 mph 21.9 mph N/A   Scattered Clouds
2:35 PM 78.4 °F 61.0 °F 55% 30.04 in 10.0 mi South 11.5 mph 18.4 mph N/A   Mostly Cloudy
2:55 PM 78.4 °F 60.1 °F 53% 30.04 in 10.0 mi South 16.1 mph 21.9 mph N/A   Scattered Clouds
3:15 PM 79.7 °F 59.9 °F 51% 30.03 in 10.0 mi South 13.8 mph 19.6 mph N/A   Scattered Clouds
3:35 PM 79.0 °F 60.3 °F 53% 30.03 in 10.0 mi South 9.2 mph 17.3 mph N/A   Scattered Clouds
3:55 PM 79.2 °F 59.9 °F 52% 30.03 in 10.0 mi SSE 8.1 mph 16.1 mph N/A   Scattered Clouds
4:15 PM 78.8 °F 60.3 °F 53% 30.03 in 10.0 mi SSE 12.7 mph 17.3 mph N/A   Scattered Clouds
4:35 PM 78.6 °F 60.1 °F 53% 30.03 in 10.0 mi South 9.2 mph 16.1 mph N/A   Clear
4:55 PM 77.9 °F 60.3 °F 54% 30.04 in 10.0 mi South 10.4 mph - N/A   Scattered Clouds
5:15 PM 77.0 °F 61.2 °F 58% 30.04 in 10.0 mi SSE 6.9 mph - N/A   Scattered Clouds
5:35 PM 76.3 °F 61.7 °F 60% 30.05 in 10.0 mi SSE 8.1 mph - N/A   Scattered Clouds
5:55 PM 75.6 °F 61.9 °F 62% 30.05 in 10.0 mi SSE 5.8 mph - N/A   Mostly Cloudy
6:15 PM 74.7 °F 61.9 °F 64% 30.05 in 10.0 mi SE 5.8 mph - N/A   Mostly Cloudy
6:35 PM 74.3 °F 61.9 °F 65% 30.05 in 10.0 mi SSE 5.8 mph - N/A   Mostly Cloudy
6:55 PM 73.8 °F 61.7 °F 66% 30.05 in 10.0 mi SE 8.1 mph - N/A   Scattered Clouds
7:15 PM 73.2 °F 61.7 °F 67% 30.05 in 10.0 mi SE 10.4 mph - N/A   Clear
7:35 PM 72.5 °F 61.7 °F 69% 30.06 in 10.0 mi SE 8.1 mph - N/A   Clear
7:55 PM 71.8 °F 61.3 °F 70% 30.05 in 10.0 mi SSE 9.2 mph - N/A   Clear
8:15 PM 71.6 °F 61.7 °F 71% 30.06 in 10.0 mi SSE 10.4 mph - N/A   Clear
8:35 PM 70.9 °F 61.7 °F 73% 30.06 in 10.0 mi SSE 10.4 mph 16.1 mph N/A   Clear
8:55 PM 70.7 °F 61.9 °F 74% 30.06 in 10.0 mi SSE 10.4 mph 17.3 mph N/A   Clear
9:15 PM 70.7 °F 62.1 °F 74% 30.07 in 10.0 mi SSE 8.1 mph - N/A   Clear
9:35 PM 70.3 °F 62.4 °F 76% 30.07 in 10.0 mi SSE 9.2 mph 16.1 mph N/A   Clear
9:55 PM 70.2 °F 62.6 °F 77% 30.07 in 10.0 mi SSE 12.7 mph 17.3 mph N/A   Clear
10:15 PM 69.8 °F 62.6 °F 78% 30.08 in 10.0 mi South 12.7 mph 25.3 mph N/A   Clear
10:35 PM 69.1 °F 62.6 °F 80% 30.09 in 10.0 mi South 9.2 mph 17.3 mph N/A   Clear
10:55 PM 68.9 °F 62.6 °F 80% 30.09 in 10.0 mi SSE 9.2 mph 18.4 mph N/A   Clear
11:35 PM 68.0 °F 62.6 °F 83% 30.10 in 10.0 mi SSE 8.1 mph 17.3 mph N/A   Clear
11:55 PM 67.5 °F 62.6 °F 84% 30.10 in 10.0 mi SSE 8.1 mph 16.1 mph N/A   Clear